Hourly Data Report for March 11, 2015

All times are specified in Local Standard Time (LST). Add 1 hour to adjust for Daylight Saving Time where and when it is observed.

MIRAMICHI RCS
NEW BRUNSWICK

47°00'34.000" N
65°27'54.000" W
33.00 m
8100989
71744
ACQ

Download Data

Hourly Data (March 2015)
Hourly Data Report for March 11, 2015
TIME Temp Definition
°C
Dew Point Definition
°C
Rel Hum Definition
%
Wind Dir Definition
10's deg

Wind Spd Definition
km/h
Visibility Definition
km
Stn Press Definition
kPa
Hmdx Definition


Wind Chill Definition


Weather Definition


00:00 1.1 -3.8 70 21 31   100.68     LegendNANA
01:00 1.2 -3.7 70 22 31   100.53     LegendNANA
02:00 0.5 -3.4 75 22 28   100.41     LegendNANA
03:00 0.8 -2.8 77 22 25   100.21     LegendNANA
04:00 1.7 -1.9 77 22 26   100.03     LegendNANA
05:00 2.0 -1.4 79 22 31   99.86     LegendNANA
06:00 2.6 -0.6 79 22 32   99.74     LegendNANA
07:00 3.0 -0.2 80 22 39   99.64     LegendNANA
08:00 3.5 0.3 80 22 33   99.50     LegendNANA
09:00 3.9 0.5 79 22 32   99.39     LegendNANA
10:00 5.3 0.8 73 23 35   99.29     LegendNANA
11:00 7.1 0.6 63 24 34   99.20     LegendNANA
12:00 7.5 0.4 61 27 27   99.20     LegendNANA
13:00 8.1 -0.2 56 27 31   99.14     LegendNANA
14:00 3.4 0.3 80 28 27   99.28     LegendNANA
15:00 6.3 -5.3 43 28 37   99.33     LegendNANA
16:00 6.0 -9.4 32 29 37   99.47     LegendNANA
17:00 5.2 -12.5 27 30 32   99.61     LegendNANA
18:00 3.9 -12.3 29 29 34   99.78     LegendNANA
19:00 2.5 -11.8 34 29 15   99.93     LegendNANA
20:00 1.2 -11.5 38 28 15   100.05     LegendNANA
21:00 0.3 -9.2 49 28 19   100.09     LegendNANA
22:00 -0.7 -9.9 50 27 12   100.14   -5 LegendNANA
23:00 -1.8 -10.1 53 27 11   100.18   -6 LegendNANA

Notes on Data Quality.

Legend

  • E = Estimated
  • M = Missing
  • NA = Not Available
Date modified: